This is the latest recevied weather packets stored in our database for station/object KB3AWQ. If no packets are shown the sender has not sent any weather packets the latest 10 day(s).
| Time | Temp. | Humidity | Pressure | Rain* | Wind** | Luminosity | Snow |
|---|---|---|---|---|---|---|---|
| 1777840466 | 16.67° C | 38% | 1011.5 hPa | 0 mm | - | 403 W/m² | - |
| 1777840166 | 16.67° C | 38% | 1011.6 hPa | 0 mm | - | 606 W/m² | - |
| 1777839866 | 16.67° C | 39% | 1011.6 hPa | 0 mm | - | 603 W/m² | - |
| 1777839567 | 16.67° C | 39% | 1011.6 hPa | 0 mm | - | 229 W/m² | - |
| 1777839267 | 16.67° C | 38% | 1011.7 hPa | 0 mm | - | 594 W/m² | - |
| 1777838967 | 16.67° C | 39% | 1011.8 hPa | 0 mm | - | 686 W/m² | - |
| 1777838667 | 16.67° C | 39% | 1011.9 hPa | 0 mm | - | 478 W/m² | - |
| 1777838366 | 16.67° C | 40% | 1012 hPa | 0 mm | - | 715 W/m² | - |
| 1777838066 | 16.11° C | 40% | 1012 hPa | 0 mm | - | 673 W/m² | - |
| 1777837766 | 16.11° C | 37% | 1011.9 hPa | 0 mm | - | 714 W/m² | - |
| 1777837467 | 16.11° C | 39% | 1012 hPa | 0 mm | - | 734 W/m² | - |
| 1777837166 | 16.11° C | 41% | 1012.1 hPa | 0 mm | - | 217 W/m² | - |
| 1777836866 | 16.67° C | 39% | 1012.1 hPa | 0 mm | - | 247 W/m² | - |
| 1777836566 | 16.67° C | 38% | 1012.2 hPa | 0 mm | - | 333 W/m² | - |
| 1777836266 | 16.67° C | 38% | 1012.2 hPa | 0 mm | - | 380 W/m² | - |
| 1777835966 | 16.67° C | 37% | 1012.3 hPa | 0 mm | - | 770 W/m² | - |
| 1777835666 | 16.67° C | 40% | 1012.3 hPa | 0 mm | - | 898 W/m² | - |
| 1777835366 | 16.67° C | 39% | 1012.4 hPa | 0 mm | - | 263 W/m² | - |
| 1777835066 | 16.67° C | 39% | 1012.5 hPa | 0 mm | - | 737 W/m² | - |
| 1777834766 | 16.67° C | 38% | 1012.5 hPa | 0 mm | - | 449 W/m² | - |
| 1777834467 | 16.11° C | 40% | 1012.5 hPa | 0 mm | - | 898 W/m² | - |
| 1777834167 | 15.56° C | 41% | 1012.6 hPa | 0 mm | - | 922 W/m² | - |
| 1777833866 | 15.56° C | 40% | 1012.6 hPa | 0 mm | - | 488 W/m² | - |
| 1777833568 | 15.56° C | 40% | 1012.7 hPa | 0 mm | - | 349 W/m² | - |
| 1777833267 | 15.56° C | 41% | 1012.6 hPa | 0 mm | - | 757 W/m² | - |
* Rain latest hour (hover to see other rain measurements)
** Current wind speed in m/s (hover to see current wind gust speed)